[[{"header":{"parameterUnit":"m.s-1","parameterCategory":2,"la1":30.2991,"la2":30.254,"lo1":-89.0895,"lo2":-89.0444,"dy":0.0017,"dx":0.0017,"nx":28,"ny":28,"refTime":"2025-07-17T21:00:00:Z","depth":"0","parameterNumber":2,"parameterNumberName":"U-component_of_CURRENTS"},"data":[0,0,0,0,0,0,0,0,0,0,0,0,0,0,0,0,0,0,0,0,0,0,0,0,0,0,0,0,0,0,0,0,0,0,0,0,0,0,0,0,0,0,0,0,0,0,0,0,0,0,0,0,0,0,0,0,0,0,-0.1162,-0.1161,0,-0.1081,-0.108,-0.1079,-0.1042,-0.1043,-0.1043,-0.1043,-0.0931,-0.0928,-0.0925,0,0,0,0,0,0,0,0,0,0,0,0,0,-0.126,-0.1259,-0.1162,-0.1161,-0.116,-0.1081,-0.108,-0.1079,-0.1042,-0.1043,-0.1043,-0.1043,-0.0932,-0.0928,-0.0925,0,0,0,0,0,0,0,0,0,0,0,0,0,-0.1203,-0.1258,-0.1163,-0.1132,-0.1128,-0.1081,-0.108,-0.1078,-0.1042,-0.1043,-0.1043,-0.1043,-0.0933,-0.0929,-0.0924,-0.0896,0,0,-0.0911,-0.0909,0,0,0,0,0,0,0,0,-0.1206,-0.1199,-0.1138,-0.1134,-0.113,-0.1071,-0.1073,-0.1016,-0.1042,-0.1076,-0.1043,-0.1043,-0.0974,-0.0966,-0.0953,-0.0891,-0.0886,-0.091,-0.0907,-0.0905,-0.0904,0,0,0,0,0,0,0,-0.121,-0.1203,-0.1131,-0.1136,-0.1132,-0.1113,-0.1105,-0.1062,-0.1026,-0.1073,-0.107,-0.1059,-0.0972,-0.0957,-0.095,-0.0884,-0.091,-0.0906,-0.0904,-0.0902,-0.0862,-0.0863,0,0,0,0,0,0,-0.122,-0.1206,-0.1134,-0.1128,-0.1168,-0.1111,-0.1102,-0.1091,-0.1027,-0.1017,-0.106,-0.1058,-0.0965,-0.0955,-0.0946,-0.0952,-0.0906,-0.0901,-0.0899,-0.086,-0.0862,-0.0864,0,0,0,0,0,0,-0.1222,-0.1214,-0.1137,-0.1165,-0.1154,-0.1109,-0.1096,-0.1089,-0.1071,-0.1017,-0.1007,-0.1049,-0.0964,-0.0952,-0.0932,-0.0946,-0.0899,-0.0895,-0.0858,-0.0861,-0.0863,-0.0937,0,0,0,0,0,0,-0.1225,-0.1215,-0.1197,-0.1166,-0.1152,-0.1115,-0.1096,-0.1087,-0.1064,-0.1062,-0.1005,-0.0995,-0.0964,-0.094,-0.0928,-0.0939,-0.0892,-0.0856,-0.0859,-0.0862,-0.0932,-0.0942,-0.0949,0,0,0,0,0,-0.1229,-0.1195,-0.1197,-0.1187,-0.1133,-0.1115,-0.1107,-0.1076,-0.1064,-0.106,-0.1039,-0.0996,-0.0951,-0.0937,-0.0923,-0.0933,-0.0855,-0.0858,-0.0862,-0.0929,-0.094,-0.0949,0,0,0,0,0,0,-0.1192,-0.1188,-0.1188,-0.1145,-0.114,-0.1108,-0.1082,-0.1076,-0.1054,-0.1048,-0.1007,-0.0996,-0.0986,-0.0954,-0.0939,-0.0936,-0.0899,-0.09,-0.0955,-0.0965,-0.0973,-0.0968,-0.0888,0,0,0,0,0,-0.1187,-0.1181,-0.1171,-0.1137,-0.1134,-0.1114,-0.1096,-0.109,-0.1069,-0.1058,-0.103,-0.1004,-0.0989,-0.0973,-0.095,-0.0935,-0.0935,-0.0939,-0.0947,-0.0955,-0.0945,-0.0997,-0.1009,-0.0876,-0.0876,-0.0876,0,0,-0.116,-0.1156,-0.1148,-0.1133,-0.1118,-0.1122,-0.1103,-0.1084,-0.1092,-0.1048,-0.104,-0.1025,-0.0994,-0.0992,-0.0984,-0.0965,-0.0993,-0.0959,-0.0965,-0.0951,-0.1002,-0.1015,-0.1026,-0.0878,-0.0878,-0.0878,0,0,-0.1123,-0.1107,-0.1104,-0.111,-0.1106,-0.1108,-0.111,-0.1098,-0.1095,-0.1092,-0.1078,-0.1083,-0.1036,-0.104,-0.103,-0.1069,-0.1038,-0.1058,-0.1089,-0.1141,-0.1152,-0.1162,-0.1181,-0.1191,-0.1061,-0.1061,-0.1061,0,-0.109,-0.1088,-0.1095,-0.1102,-0.1105,-0.111,-0.1117,-0.1117,-0.1107,-0.1112,-0.1097,-0.1086,-0.1063,-0.1081,-0.11,-0.1087,-0.1098,-0.1051,-0.1152,-0.1162,-0.1171,-0.1187,-0.1198,-0.1065,-0.1065,-0.1064,-0.1064,0,-0.1074,-0.1071,-0.1063,-0.1094,-0.1103,-0.1101,-0.1125,-0.1138,-0.1139,-0.1143,-0.1157,-0.1147,-0.114,-0.1147,-0.1126,-0.118,-0.1162,-0.116,-0.1126,-0.1189,-0.1202,-0.1212,-0.1071,-0.1069,-0.1068,-0.1067,0,0,-0.1009,-0.1048,-0.1047,-0.1069,-0.1103,-0.111,-0.1141,-0.1169,-0.1192,-0.1192,-0.1218,-0.1214,-0.121,-0.1201,-0.1196,-0.1239,-0.1316,-0.1223,-0.1223,-0.1239,-0.1411,-0.1357,-0.1362,-0.1336,-0.1339,-0.134,-0.1396,0,-0.0995,-0.1014,-0.1045,-0.1071,-0.1084,-0.1124,-0.1156,-0.1189,-0.121,-0.124,-0.1248,-0.1259,-0.1231,-0.1237,-0.1277,-0.1303,-0.1345,-0.1299,-0.1348,-0.1349,-0.1292,-0.1374,-0.1276,-0.1315,-0.1406,-0.1408,-0.1409,0,-0.0984,-0.0999,-0.1022,-0.108,-0.109,-0.1113,-0.118,-0.1209,-0.1262,-0.1276,-0.1298,-0.1301,-0.1342,-0.1322,-0.1392,-0.1363,-0.1387,-0.1411,-0.1414,-0.134,-0.1314,-0.1266,-0.1329,-0.1311,-0.1424,-0.1423,-0.1422,0,-0.096,-0.0991,-0.1014,-0.103,-0.109,-0.1113,-0.1148,-0.121,-0.1245,-0.1299,-0.1327,-0.1364,-0.1387,-0.143,-0.1452,-0.1434,-0.1537,-0.1523,-0.1496,-0.1492,-0.1403,-0.1386,-0.1448,-0.1592,-0.1592,-0.1591,-0.1591,0,-0.0951,-0.0968,-0.0999,-0.1012,-0.1043,-0.1093,-0.1141,-0.1185,-0.1252,-0.1298,-0.1331,-0.1375,-0.1421,-0.1471,-0.1486,-0.1514,-0.1564,-0.151,-0.1514,-0.1425,-0.1411,-0.1383,-0.1395,-0.1593,-0.1593,-0.1593,-0.1592,0,-0.0938,-0.0959,-0.0979,-0.1021,-0.1035,-0.1055,-0.1127,-0.1163,-0.123,-0.1296,-0.1314,-0.1397,-0.1461,-0.1499,-0.158,-0.1554,-0.1566,-0.1593,-0.1464,-0.1451,-0.1381,-0.14,-0.1473,-0.1429,-0.1568,-0.1567,-0.1566,0,-0.0937,-0.0942,-0.0971,-0.0974,-0.099,-0.1025,-0.1054,-0.1134,-0.1178,-0.1306,-0.1334,-0.1424,-0.1473,-0.1551,-0.1535,-0.1553,-0.1563,-0.1473,-0.1423,-0.1374,-0.14,-0.1424,-0.1382,-0.1338,-0.1335,-0.1333,-0.1332,0,-0.0915,-0.092,-0.0931,-0.0936,-0.0953,-0.0983,-0.1029,-0.1064,-0.1168,-0.1233,-0.1326,-0.1383,-0.1457,-0.144,-0.1458,-0.1448,-0.1419,-0.143,-0.1431,-0.1268,-0.1249,-0.1207,-0.1287,-0.1313,-0.1315,-0.1316,-0.1317,-0.1318,-0.0877,-0.0873,-0.0873,-0.0882,-0.0902,-0.0917,-0.091,-0.0978,-0.1037,-0.1107,-0.1255,-0.1302,-0.1362,-0.1364,-0.1346,-0.1246,-0.131,-0.12,-0.1241,-0.1279,-0.12,-0.1221,-0.122,-0.1221,-0.1222,-0.1223,-0.1224,0,-0.0802,-0.0809,-0.0817,-0.0814,-0.0814,-0.0845,-0.0872,-0.0847,-0.0869,-0.0972,-0.1053,-0.1163,-0.1164,-0.1183,-0.112,-0.1066,-0.1033,-0.1054,-0.1063,-0.1037,-0.1091,-0.104,-0.0937,-0.0937,-0.0937,-0.0937,-0.0937,-0.0937,-0.0755,-0.0731,-0.0743,-0.0714,-0.072,-0.0677,-0.0664,-0.0635,-0.0657,-0.0688,-0.0754,-0.0831,-0.0943,-0.1133,-0.1063,-0.1001,-0.0988,-0.0966,-0.101,-0.1036,-0.1052,-0.1068,-0.1022,-0.0916,-0.0916,-0.088,-0.088,-0.088]},{"header":{"parameterUnit":"m.s-1","parameterCategory":2,"la1":30.2991,"la2":30.254,"lo1":-89.0895,"lo2":-89.0444,"dy":0.0017,"dx":0.0017,"nx":28,"ny":28,"refTime":"2025-07-17T21:00:00:Z","depth":"0","parameterNumber":3,"parameterNumberName":"V-component_of_CURRENTS"},"data":[0,0,0,0,0,0,0,0,0,0,0,0,0,0,0,0,0,0,0,0,0,0,0,0,0,0,0,0,0,0,0,0,0,0,0,0,0,0,0,0,0,0,0,0,0,0,0,0,0,0,0,0,0,0,0,0,0,0,0.0618,0.0619,0,0.0715,0.0716,0.0718,0.0806,0.0807,0.0808,0.0809,0.0889,0.089,0.0892,0,0,0,0,0,0,0,0,0,0,0,0,0,0.0495,0.0497,0.0618,0.0619,0.062,0.0715,0.0717,0.0718,0.0806,0.0807,0.0808,0.0809,0.0889,0.089,0.0892,0,0,0,0,0,0,0,0,0,0,0,0,0,0.0568,0.0498,0.0617,0.0674,0.0679,0.0715,0.0717,0.0718,0.0806,0.0807,0.0808,0.081,0.0888,0.089,0.0892,0.0878,0,0,0.0898,0.0899,0,0,0,0,0,0,0,0,0.0564,0.0573,0.0664,0.067,0.0676,0.0748,0.0703,0.077,0.0806,0.076,0.0809,0.081,0.0838,0.0844,0.0863,0.0882,0.0886,0.0898,0.0899,0.09,0.0901,0,0,0,0,0,0,0,0.0559,0.0569,0.0658,0.0665,0.0672,0.0689,0.0702,0.0716,0.0792,0.0764,0.077,0.0777,0.0842,0.0861,0.0865,0.0887,0.0898,0.09,0.0901,0.0902,0.0866,0.0864,0,0,0,0,0,0,0.0542,0.0564,0.0655,0.0661,0.062,0.069,0.0704,0.0725,0.0792,0.0803,0.0776,0.0781,0.0857,0.0863,0.0868,0.0837,0.09,0.0902,0.0903,0.0868,0.0865,0.0863,0,0,0,0,0,0,0.0539,0.055,0.0651,0.0612,0.0626,0.0691,0.0714,0.0727,0.0742,0.0801,0.0813,0.0778,0.0858,0.0866,0.0867,0.0842,0.0903,0.0905,0.0871,0.0867,0.0864,0.0786,0,0,0,0,0,0,0.0536,0.0548,0.0549,0.0612,0.0628,0.0649,0.0713,0.0727,0.0744,0.0751,0.0806,0.0816,0.086,0.0864,0.0869,0.0846,0.0906,0.0873,0.0869,0.0865,0.0792,0.0781,0.0772,0,0,0,0,0,0.0531,0.0521,0.0548,0.0559,0.063,0.0647,0.0656,0.0708,0.0742,0.0731,0.0773,0.0814,0.0842,0.0864,0.087,0.0847,0.0875,0.087,0.0866,0.0796,0.0783,0.0772,0,0,0,0,0,0,0.047,0.0531,0.0562,0.0573,0.0598,0.0661,0.0657,0.0694,0.072,0.0731,0.0792,0.0802,0.0795,0.082,0.0843,0.082,0.0862,0.0859,0.0807,0.0795,0.0785,0.077,0.0908,0,0,0,0,0,0.0455,0.0463,0.052,0.0523,0.0535,0.0593,0.0606,0.0641,0.0677,0.0692,0.0727,0.0759,0.0779,0.0787,0.0806,0.0792,0.0822,0.0776,0.0766,0.0758,0.0746,0.0749,0.0739,0.0847,0.0847,0.0847,0,0,0.0429,0.0464,0.0468,0.0509,0.0539,0.0541,0.0604,0.0614,0.0616,0.0693,0.0691,0.0724,0.0766,0.0758,0.0755,0.0778,0.0747,0.0752,0.0745,0.0738,0.0743,0.0732,0.0723,0.0844,0.0844,0.0845,0,0,0.0375,0.0415,0.0403,0.0421,0.0455,0.0489,0.0484,0.0534,0.0554,0.0556,0.0613,0.0623,0.065,0.0676,0.0695,0.0632,0.0694,0.0635,0.0576,0.0578,0.057,0.0563,0.0613,0.0611,0.063,0.063,0.063,0,0.0337,0.0348,0.0395,0.039,0.0396,0.0458,0.0442,0.0467,0.0506,0.0511,0.0539,0.0574,0.0611,0.0611,0.0596,0.0612,0.0638,0.0625,0.0567,0.056,0.0554,0.0608,0.0606,0.0626,0.0626,0.0627,0.0627,0,0.0283,0.029,0.0279,0.03,0.0305,0.0298,0.0341,0.0344,0.0376,0.0406,0.0406,0.0455,0.048,0.0487,0.053,0.0502,0.0545,0.0557,0.0603,0.0539,0.0599,0.06,0.062,0.0621,0.0622,0.0623,0,0,0.0206,0.0234,0.0231,0.0228,0.0261,0.0257,0.0251,0.0262,0.0258,0.0287,0.0275,0.0312,0.0348,0.0369,0.0417,0.0419,0.0418,0.0465,0.0467,0.0525,0.0457,0.0476,0.0479,0.042,0.0418,0.0417,0.0526,0,0.0148,0.0119,0.015,0.0114,0.0104,0.0152,0.0139,0.0156,0.0183,0.0182,0.0229,0.0241,0.0302,0.0318,0.0325,0.0384,0.041,0.039,0.0501,0.0505,0.0536,0.0475,0.051,0.0606,0.0527,0.0527,0.0527,0,0.0091,0.0081,0.0041,0.0036,0.0034,0.0022,0.002,0.0019,0.0044,0.0065,0.0088,0.0136,0.0155,0.0212,0.0284,0.0268,0.0357,0.041,0.0416,0.0456,0.0521,0.065,0.061,0.0754,0.0528,0.0528,0.0528,0,0.0023,0.0004,-0.0031,-0.0032,-0.0028,-0.004,-0.0039,-0.0018,-0.0025,-0.0001,-0.0007,0.0036,0.0054,0.0135,0.0261,0.027,0.0344,0.0376,0.049,0.0495,0.0556,0.0567,0.0672,0.0435,0.0435,0.0435,0.0434,0,-0.0039,-0.0067,-0.0064,-0.008,-0.0131,-0.0101,-0.0141,-0.0125,-0.0116,-0.0146,-0.0068,-0.0088,0.0029,0.0095,0.0221,0.0348,0.0324,0.0468,0.0505,0.0532,0.0539,0.0692,0.0745,0.0439,0.0438,0.0437,0.0437,0,-0.0092,-0.0092,-0.0131,-0.0145,-0.0157,-0.0186,-0.0204,-0.0228,-0.0204,-0.0241,-0.0237,-0.019,-0.0108,0.0043,0.0179,0.0294,0.0509,0.0491,0.0537,0.0575,0.0789,0.0835,0.0956,0.1037,0.0617,0.0618,0.0618,0,-0.0117,-0.0138,-0.0179,-0.021,-0.0215,-0.0251,-0.0281,-0.0272,-0.0297,-0.0313,-0.0346,-0.0276,-0.0249,-0.0027,0.0206,0.0442,0.0564,0.062,0.0629,0.079,0.087,0.0906,0.0969,0.0708,0.071,0.0711,0.0712,0,-0.0152,-0.0162,-0.0191,-0.026,-0.0302,-0.0355,-0.0393,-0.0435,-0.0437,-0.0485,-0.0543,-0.0528,-0.0289,-0.0046,0.0297,0.0443,0.0711,0.0648,0.0794,0.0916,0.0984,0.1084,0.0687,0.0721,0.072,0.072,0.0719,0.0719,-0.0167,-0.02,-0.0238,-0.0306,-0.0361,-0.0437,-0.0487,-0.0549,-0.0627,-0.0694,-0.0681,-0.0586,-0.0176,0.0281,0.0432,0.0836,0.0807,0.0968,0.1009,0.1032,0.1097,0.073,0.0805,0.0804,0.0804,0.0804,0.0803,0,-0.0184,-0.0223,-0.0284,-0.0366,-0.0435,-0.0454,-0.0546,-0.0602,-0.0718,-0.074,-0.0786,-0.0275,0.0094,0.0517,0.1039,0.1216,0.1261,0.1304,0.1382,0.1427,0.1097,0.1088,0.1252,0.1252,0.1251,0.1251,0.1251,0.1251,-0.0196,-0.0252,-0.0292,-0.0406,-0.0463,-0.0556,-0.0608,-0.0702,-0.0708,-0.0647,-0.0383,-0.0164,0.0489,0.1131,0.1555,0.1584,0.1748,0.171,0.1796,0.1592,0.1565,0.1539,0.1545,0.1802,0.1803,0.2136,0.214,0.2142]}],[{"header":{"parameterUnit":"m.s-1","parameterCategory":2,"la1":30.2991,"la2":30.254,"lo1":-89.0895,"lo2":-89.0444,"dy":0.0017,"dx":0.0017,"nx":28,"ny":28,"refTime":"2025-07-17T21:00:00:Z","depth":"2","parameterNumber":2,"parameterNumberName":"U-component_of_CURRENTS"},"data":[0,0,0,0,0,0,0,0,0,0,0,0,0,0,0,0,0,0,0,0,0,0,0,0,0,0,0,0,0,0,0,0,0,0,0,0,0,0,0,0,0,0,0,0,0,0,0,0,0,0,0,0,0,0,0,0,0,0,-0.2076,-0.2077,0,-0.2187,-0.2189,-0.219,-0.2246,-0.2246,-0.2245,-0.2245,-0.2334,-0.2336,-0.2339,0,0,0,0,0,0,0,0,0,0,0,0,0,-0.1945,-0.1947,-0.2076,-0.2077,-0.2078,-0.2187,-0.2189,-0.219,-0.2246,-0.2246,-0.2245,-0.2245,-0.2333,-0.2336,-0.2339,0,0,0,0,0,0,0,0,0,0,0,0,0,-0.2025,-0.1947,-0.2075,-0.2117,-0.2122,-0.2187,-0.2189,-0.2191,-0.2246,-0.2246,-0.2245,-0.2245,-0.2332,-0.2336,-0.234,-0.2369,0,0,-0.2351,-0.2353,0,0,0,0,0,0,0,0,-0.2021,-0.203,-0.211,-0.2114,-0.212,-0.22,-0.2175,-0.2249,-0.2246,-0.2201,-0.2245,-0.2245,-0.2286,-0.2293,-0.2319,-0.2373,-0.2377,-0.2352,-0.2354,-0.2356,-0.2357,0,0,0,0,0,0,0,-0.2015,-0.2026,-0.2122,-0.2111,-0.2117,-0.2141,-0.2153,-0.219,-0.2245,-0.2205,-0.2209,-0.2218,-0.2288,-0.2315,-0.2321,-0.2379,-0.2351,-0.2355,-0.2357,-0.2359,-0.2546,-0.2549,0,0,0,0,0,0,-0.1995,-0.2021,-0.2119,-0.2125,-0.2066,-0.2144,-0.2156,-0.2177,-0.2246,-0.2255,-0.2218,-0.222,-0.2309,-0.2317,-0.2324,-0.2397,-0.2355,-0.2359,-0.2361,-0.2543,-0.2547,-0.255,0,0,0,0,0,0,-0.1992,-0.2004,-0.2114,-0.2073,-0.2088,-0.2146,-0.2168,-0.2179,-0.2245,-0.2255,-0.2265,-0.2277,-0.2309,-0.2319,-0.2409,-0.2399,-0.2361,-0.2364,-0.254,-0.2544,-0.2548,-0.2521,0,0,0,0,0,0,-0.1988,-0.2002,-0.2027,-0.2072,-0.209,-0.2183,-0.2169,-0.2181,-0.2247,-0.2252,-0.2308,-0.2314,-0.2309,-0.2404,-0.2413,-0.2404,-0.2367,-0.2537,-0.2542,-0.2547,-0.2518,-0.2523,-0.2528,0,0,0,0,0,-0.1984,-0.203,-0.2028,-0.2041,-0.2117,-0.2185,-0.2199,-0.2239,-0.2251,-0.2296,-0.2342,-0.2314,-0.244,-0.241,-0.242,-0.2411,-0.2534,-0.2541,-0.2546,-0.2516,-0.2522,-0.2528,0,0,0,0,0,0,-0.2027,-0.2041,-0.204,-0.2099,-0.2145,-0.2195,-0.2245,-0.2268,-0.2342,-0.2363,-0.2365,-0.2376,-0.2447,-0.2459,-0.2425,-0.2488,-0.2477,-0.2485,-0.245,-0.2457,-0.2461,-0.2431,-0.237,0,0,0,0,0,-0.2034,-0.2062,-0.2087,-0.2149,-0.2164,-0.221,-0.2249,-0.2284,-0.2341,-0.2376,-0.241,-0.245,-0.2475,-0.2493,-0.2537,-0.258,-0.2548,-0.2582,-0.2587,-0.259,-0.2579,-0.2525,-0.2521,-0.2569,-0.2569,-0.2569,0,0,-0.2067,-0.2087,-0.2103,-0.2157,-0.2195,-0.2241,-0.2237,-0.2322,-0.2369,-0.2373,-0.2469,-0.2487,-0.2502,-0.2546,-0.2574,-0.2552,-0.2568,-0.2598,-0.2599,-0.2586,-0.2531,-0.2525,-0.252,-0.2573,-0.2573,-0.2572,0,0,-0.2143,-0.2166,-0.2197,-0.2239,-0.2299,-0.2314,-0.2345,-0.2411,-0.2446,-0.2528,-0.2532,-0.2555,-0.2622,-0.2604,-0.2603,-0.2671,-0.2609,-0.2687,-0.2659,-0.2608,-0.2601,-0.2595,-0.2558,-0.2548,-0.2667,-0.2667,-0.2667,0,-0.2179,-0.2228,-0.223,-0.2284,-0.2319,-0.2347,-0.2402,-0.2445,-0.2541,-0.2553,-0.2566,-0.2616,-0.2634,-0.2625,-0.2637,-0.267,-0.2638,-0.2621,-0.2604,-0.2598,-0.2591,-0.2555,-0.2545,-0.2667,-0.2667,-0.2667,-0.2667,0,-0.2275,-0.2317,-0.2357,-0.24,-0.2439,-0.2515,-0.2538,-0.2589,-0.2614,-0.2629,-0.266,-0.2671,-0.2673,-0.2678,-0.267,-0.2633,-0.2625,-0.2623,-0.2567,-0.2583,-0.2547,-0.2536,-0.2666,-0.2666,-0.2666,-0.2666,0,0,-0.2302,-0.2396,-0.2399,-0.2425,-0.251,-0.2538,-0.2606,-0.2634,-0.2643,-0.2697,-0.2687,-0.2707,-0.2678,-0.2677,-0.2657,-0.26,-0.2529,-0.2582,-0.2579,-0.2505,-0.2413,-0.2323,-0.2302,-0.2505,-0.2503,-0.2501,-0.2406,0,-0.2364,-0.2456,-0.2489,-0.2566,-0.26,-0.2636,-0.2672,-0.2706,-0.2717,-0.2721,-0.2691,-0.2689,-0.2686,-0.2656,-0.2606,-0.2562,-0.25,-0.2555,-0.2445,-0.2442,-0.2324,-0.2286,-0.2158,-0.2054,-0.2396,-0.2394,-0.2393,0,-0.2404,-0.2459,-0.2534,-0.2596,-0.2609,-0.2644,-0.2656,-0.2704,-0.2705,-0.271,-0.2685,-0.2676,-0.262,-0.2604,-0.2502,-0.2534,-0.2469,-0.2423,-0.2418,-0.2328,-0.233,-0.2097,-0.2021,-0.2375,-0.2376,-0.2377,-0.2379,0,-0.2355,-0.2466,-0.2511,-0.255,-0.2629,-0.2635,-0.2659,-0.2676,-0.2689,-0.2675,-0.2663,-0.2626,-0.2577,-0.2509,-0.2429,-0.2455,-0.2296,-0.2328,-0.2187,-0.2182,-0.2048,-0.2032,-0.2228,-0.2228,-0.2228,-0.2228,-0.2228,0,-0.2378,-0.2402,-0.2479,-0.2504,-0.2515,-0.2584,-0.2576,-0.2598,-0.2616,-0.2595,-0.2626,-0.2578,-0.2541,-0.2462,-0.2405,-0.2248,-0.2275,-0.2159,-0.2133,-0.2041,-0.2027,-0.2294,-0.2303,-0.2225,-0.2225,-0.2226,-0.2227,0,-0.2293,-0.2372,-0.2397,-0.247,-0.2482,-0.2466,-0.2513,-0.2512,-0.2547,-0.2513,-0.2505,-0.2515,-0.2404,-0.2357,-0.223,-0.2189,-0.2072,-0.2005,-0.1906,-0.1868,-0.2009,-0.2019,-0.1857,-0.1853,-0.1849,-0.1846,-0.1843,0,-0.2261,-0.2272,-0.2319,-0.2314,-0.2334,-0.2343,-0.2351,-0.2432,-0.2439,-0.245,-0.2421,-0.2345,-0.2228,-0.2049,-0.196,-0.1827,-0.1911,-0.1656,-0.1682,-0.1971,-0.1963,-0.1979,-0.1993,-0.1511,-0.1506,-0.1502,-0.1498,0,-0.217,-0.2171,-0.2184,-0.2178,-0.2179,-0.2206,-0.2229,-0.2219,-0.2294,-0.2247,-0.2158,-0.2066,-0.1936,-0.1734,-0.1613,-0.1537,-0.1679,-0.1566,-0.1849,-0.1628,-0.1636,-0.1633,-0.1659,-0.1461,-0.1465,-0.1468,-0.147,-0.1471,-0.2057,-0.2027,-0.2036,-0.2013,-0.2035,-0.2041,-0.1981,-0.2015,-0.196,-0.1877,-0.1894,-0.1719,-0.1681,-0.1411,-0.1296,-0.1252,-0.1376,-0.1348,-0.1364,-0.1384,-0.1364,-0.1365,-0.1136,-0.1138,-0.114,-0.1141,-0.1142,0,-0.1928,-0.1903,-0.1881,-0.1868,-0.1853,-0.1913,-0.188,-0.1791,-0.1637,-0.1629,-0.1505,-0.1299,-0.1146,-0.1127,-0.0993,-0.0951,-0.0977,-0.092,-0.0972,-0.1008,-0.1041,-0.1007,-0.0683,-0.0682,-0.068,-0.0679,0,0,-0.1857,-0.1793,-0.1785,-0.1699,-0.1687,-0.1578,-0.151,-0.139,-0.1321,-0.1158,-0.1088,-0.1137,-0.1115,-0.0919,-0.0848,-0.0748,-0.0878,-0.0708,-0.1078,-0.1177,-0.1208,-0.1286,-0.1273,0,0,0,0,0]},{"header":{"parameterUnit":"m.s-1","parameterCategory":2,"la1":30.2991,"la2":30.254,"lo1":-89.0895,"lo2":-89.0444,"dy":0.0017,"dx":0.0017,"nx":28,"ny":28,"refTime":"2025-07-17T21:00:00:Z","depth":"2","parameterNumber":3,"parameterNumberName":"V-component_of_CURRENTS"},"data":[0,0,0,0,0,0,0,0,0,0,0,0,0,0,0,0,0,0,0,0,0,0,0,0,0,0,0,0,0,0,0,0,0,0,0,0,0,0,0,0,0,0,0,0,0,0,0,0,0,0,0,0,0,0,0,0,0,0,-0.0142,-0.0141,0,-0.0037,-0.0035,-0.0034,0.0058,0.0059,0.006,0.006,0.0283,0.0288,0.0293,0,0,0,0,0,0,0,0,0,0,0,0,0,-0.0159,-0.016,-0.0142,-0.0141,-0.014,-0.0037,-0.0035,-0.0033,0.0058,0.0059,0.006,0.0061,0.0281,0.0287,0.0293,0,0,0,0,0,0,0,0,0,0,0,0,0,-0.0109,-0.016,-0.0142,-0.0085,-0.0079,-0.0037,-0.0035,-0.0033,0.0058,0.0059,0.006,0.0061,0.0279,0.0286,0.0294,0.0322,0,0,0.0318,0.0322,0,0,0,0,0,0,0,0,-0.0112,-0.0108,-0.0094,-0.0089,-0.0082,-0.0005,0.004,0.009,0.0058,0.001,0.006,0.0062,0.0194,0.0209,0.023,0.0333,0.0342,0.0319,0.0324,0.0327,0.0329,0,0,0,0,0,0,0,-0.0116,-0.0112,-0.0096,-0.0093,-0.0086,-0.0029,-0.0021,0.005,0.01,0.0015,0.002,0.0026,0.0199,0.0222,0.0237,0.0345,0.0319,0.0326,0.0331,0.0334,0.0624,0.0627,0,0,0,0,0,0,-0.0144,-0.0116,-0.0099,-0.0093,-0.0099,-0.003,-0.0021,-0.0027,0.0097,0.0115,0.0024,0.0029,0.0208,0.0227,0.0245,0.0368,0.0327,0.0335,0.0339,0.0621,0.0625,0.0628,0,0,0,0,0,0,-0.0145,-0.0144,-0.0104,-0.0104,-0.0096,-0.0032,-0.0039,-0.0026,0.0022,0.0103,0.0124,0.0061,0.021,0.0234,0.035,0.0374,0.0338,0.0345,0.0618,0.0622,0.0626,0.0562,0,0,0,0,0,0,-0.0146,-0.0145,-0.0155,-0.0107,-0.0097,-0.0067,-0.004,-0.0025,0.002,0.0028,0.0141,0.0161,0.0213,0.0337,0.0357,0.0384,0.0351,0.0614,0.062,0.0625,0.056,0.0563,0.0566,0,0,0,0,0,-0.0147,-0.0158,-0.0157,-0.0154,-0.0115,-0.0067,-0.0056,-0.0004,0.0021,0.0044,0.0137,0.0159,0.0387,0.0346,0.0369,0.0399,0.0611,0.0618,0.0624,0.0559,0.0563,0.0566,0,0,0,0,0,0,-0.0177,-0.0149,-0.0146,-0.0151,-0.0112,-0.0053,-0.003,0.0004,0.0092,0.0115,0.0193,0.0221,0.0336,0.0386,0.0339,0.0506,0.0504,0.0516,0.0447,0.0452,0.0455,0.0408,0.0358,0,0,0,0,0,-0.0193,-0.0184,-0.0154,-0.0154,-0.0139,-0.0083,-0.0057,-0.0016,0.006,0.0099,0.0182,0.0283,0.0377,0.0427,0.0521,0.0602,0.0608,0.0643,0.0646,0.0648,0.0631,0.0644,0.0643,0.065,0.065,0.065,0,0,-0.0207,-0.0188,-0.0186,-0.0158,-0.0123,-0.0083,-0.0062,-0.0011,0.0045,0.0111,0.0228,0.0303,0.0407,0.0508,0.0562,0.0551,0.0658,0.0656,0.0656,0.0638,0.065,0.0649,0.0647,0.0654,0.0654,0.0653,0,0,-0.0215,-0.0212,-0.0203,-0.0164,-0.0113,-0.0073,-0.0057,0.0018,0.0073,0.0174,0.0249,0.0333,0.0479,0.0546,0.0599,0.0678,0.0681,0.0721,0.0684,0.0697,0.0694,0.0691,0.071,0.071,0.0711,0.0711,0.0711,0,-0.0235,-0.0215,-0.0191,-0.0159,-0.0121,-0.0068,-0.003,0.0032,0.0146,0.019,0.0214,0.0409,0.0492,0.0594,0.0622,0.0679,0.0682,0.0648,0.0691,0.0689,0.0688,0.0708,0.0708,0.0708,0.0709,0.0709,0.0709,0,-0.022,-0.0199,-0.0182,-0.0126,-0.0087,-0.0036,0.0036,0.0098,0.0163,0.022,0.0337,0.0434,0.0529,0.0581,0.0623,0.0672,0.0678,0.0691,0.0656,0.0681,0.0704,0.0705,0.0705,0.0706,0.0706,0.0707,0,0,-0.0275,-0.019,-0.0186,-0.0152,-0.0055,-0.0026,0.0064,0.0145,0.0189,0.0291,0.0343,0.0489,0.0502,0.0563,0.0622,0.0634,0.0635,0.0642,0.0644,0.0616,0.0654,0.0624,0.0623,0.0634,0.0634,0.0634,0.0675,0,-0.0266,-0.0217,-0.0162,-0.0095,-0.0061,0.0021,0.0088,0.0169,0.0243,0.0308,0.039,0.0465,0.0509,0.0529,0.0553,0.0621,0.0633,0.0622,0.0674,0.0676,0.0607,0.0622,0.0629,0.0662,0.0677,0.0677,0.0677,0,-0.027,-0.0229,-0.0184,-0.0088,-0.0068,-0.0026,0.0066,0.0137,0.0235,0.0284,0.0343,0.0405,0.0464,0.0479,0.0564,0.0546,0.0588,0.063,0.0633,0.0619,0.0647,0.0645,0.0664,0.0679,0.0679,0.0679,0.0679,0,-0.0335,-0.0241,-0.021,-0.0172,-0.0067,-0.0039,0.0017,0.0112,0.0163,0.0237,0.0259,0.0348,0.0373,0.0435,0.052,0.0532,0.059,0.0626,0.0647,0.0646,0.0671,0.0672,0.0666,0.0666,0.0665,0.0665,0.0665,0,-0.0345,-0.0316,-0.0249,-0.023,-0.0199,-0.0107,-0.0069,-0.0006,0.0076,0.0117,0.021,0.0243,0.0351,0.0411,0.0491,0.0559,0.0567,0.0632,0.0647,0.0655,0.0654,0.0685,0.0686,0.0667,0.0667,0.0666,0.0666,0,-0.0424,-0.0371,-0.0341,-0.0258,-0.0239,-0.0233,-0.0143,-0.0109,-0.0034,0.0011,0.0022,0.0148,0.021,0.0322,0.0427,0.0511,0.0589,0.0611,0.0611,0.0624,0.0652,0.0651,0.065,0.065,0.0649,0.0648,0.0648,0,-0.0456,-0.0455,-0.0409,-0.0409,-0.0378,-0.0344,-0.0314,-0.0202,-0.0159,-0.0044,-0.003,0.0046,0.0107,0.0253,0.0392,0.0513,0.0536,0.0602,0.0632,0.0631,0.0647,0.0647,0.0647,0.0661,0.0661,0.0661,0.066,0,-0.0516,-0.052,-0.0504,-0.0517,-0.0502,-0.0462,-0.0408,-0.0392,-0.0261,-0.0222,-0.015,-0.0095,0.0067,0.0211,0.0367,0.0456,0.0583,0.0598,0.0597,0.0647,0.0639,0.0655,0.0655,0.0658,0.0658,0.0658,0.0658,0.0658,-0.0579,-0.06,-0.06,-0.0606,-0.0597,-0.0577,-0.0562,-0.0492,-0.0449,-0.0345,-0.0256,-0.0139,0.0042,0.0258,0.0384,0.0524,0.0537,0.0619,0.0621,0.0623,0.06,0.0589,0.0595,0.0595,0.0595,0.0595,0.0595,0,-0.0627,-0.0644,-0.0671,-0.0672,-0.068,-0.0649,-0.0607,-0.0573,-0.0545,-0.0415,-0.0325,-0.0131,0.0062,0.0235,0.0454,0.0581,0.0607,0.0605,0.0634,0.0636,0.0638,0.0616,0.0615,0.0616,0.0616,0.0616,0,0,-0.0649,-0.0687,-0.0696,-0.0732,-0.0741,-0.0734,-0.0723,-0.0673,-0.0577,-0.0481,-0.035,-0.0149,0.0073,0.023,0.0394,0.0509,0.0537,0.052,0.0497,0.0514,0.0514,0.0645,0.0613,0,0,0,0,0]}],[{"header":{"parameterUnit":"m.s-1","parameterCategory":2,"la1":30.2991,"la2":30.254,"lo1":-89.0895,"lo2":-89.0444,"dy":0.0017,"dx":0.0017,"nx":28,"ny":28,"refTime":"2025-07-17T21:00:00:Z","depth":"4","parameterNumber":2,"parameterNumberName":"U-component_of_CURRENTS"},"data":[0,0,0,0,0,0,0,0,0,0,0,0,0,0,0,0,0,0,0,0,0,0,0,0,0,0,0,0,0,0,0,0,0,0,0,0,0,0,0,0,0,0,0,0,0,0,0,0,0,0,0,0,0,0,0,0,0,0,-0.111,-0.1111,0,-0.1177,-0.1178,-0.1179,-0.1218,-0.1218,-0.1218,-0.1219,-0.1296,-0.1298,-0.1299,0,0,0,0,0,0,0,0,0,0,0,0,0,-0.1003,-0.1005,-0.111,-0.1111,-0.1112,-0.1177,-0.1178,-0.1179,-0.1218,-0.1218,-0.1218,-0.1219,-0.1295,-0.1297,-0.13,0,0,0,0,0,0,0,0,0,0,0,0,0,-0.1057,-0.1005,-0.111,-0.114,-0.1143,-0.1177,-0.1178,-0.1179,-0.1218,-0.1218,-0.1218,-0.1219,-0.1294,-0.1297,-0.13,-0.131,0,0,-0.1308,-0.1309,0,0,0,0,0,0,0,0,-0.1054,-0.1061,-0.1135,-0.1138,-0.1142,-0.119,-0.1169,-0.1224,-0.1218,-0.1188,-0.1219,-0.1219,-0.1262,-0.1267,-0.1278,-0.1313,-0.1317,-0.1309,-0.131,-0.1311,-0.1312,0,0,0,0,0,0,0,-0.105,-0.1058,-0.1136,-0.1135,-0.114,-0.1146,-0.1154,-0.1179,-0.1222,-0.1191,-0.1194,-0.1203,-0.1264,-0.1275,-0.128,-0.1318,-0.1308,-0.1311,-0.1313,-0.1314,-0.1433,-0.1434,0,0,0,0,0,0,-0.1044,-0.1055,-0.1134,-0.1138,-0.1099,-0.1148,-0.1157,-0.1174,-0.1221,-0.1229,-0.1203,-0.1205,-0.127,-0.1277,-0.1283,-0.1358,-0.1311,-0.1314,-0.1316,-0.1431,-0.1433,-0.1435,0,0,0,0,0,0,-0.1042,-0.1051,-0.1131,-0.1098,-0.1109,-0.1149,-0.1168,-0.1175,-0.1205,-0.123,-0.1238,-0.1228,-0.1271,-0.1279,-0.1329,-0.1359,-0.1315,-0.1318,-0.143,-0.1432,-0.1434,-0.147,0,0,0,0,0,0,-0.1039,-0.105,-0.107,-0.1098,-0.111,-0.1166,-0.1168,-0.1176,-0.1209,-0.1213,-0.1254,-0.1261,-0.1271,-0.1325,-0.1332,-0.1362,-0.132,-0.1428,-0.1431,-0.1433,-0.1467,-0.1473,-0.1478,0,0,0,0,0,-0.1035,-0.106,-0.1071,-0.1081,-0.1134,-0.1167,-0.1175,-0.1203,-0.121,-0.123,-0.1261,-0.126,-0.1348,-0.1329,-0.1336,-0.1368,-0.1426,-0.143,-0.1433,-0.1464,-0.1472,-0.1478,0,0,0,0,0,0,-0.1028,-0.1067,-0.108,-0.1118,-0.1147,-0.1174,-0.1198,-0.1213,-0.1252,-0.1261,-0.128,-0.129,-0.1346,-0.1352,-0.1331,-0.1411,-0.1387,-0.1392,-0.1408,-0.1415,-0.1421,-0.1408,-0.1322,0,0,0,0,0,-0.1034,-0.1062,-0.1097,-0.1127,-0.1143,-0.1172,-0.1193,-0.1212,-0.1245,-0.1263,-0.1293,-0.1327,-0.1363,-0.1385,-0.1416,-0.1459,-0.1447,-0.1484,-0.149,-0.1495,-0.1491,-0.1517,-0.1525,-0.1446,-0.1446,-0.1446,0,0,-0.1038,-0.1065,-0.1081,-0.1128,-0.1152,-0.1179,-0.1186,-0.1223,-0.1252,-0.1265,-0.1321,-0.1351,-0.138,-0.1432,-0.1457,-0.1443,-0.1508,-0.1499,-0.1503,-0.1496,-0.1522,-0.1529,-0.1536,-0.1448,-0.1448,-0.1448,0,0,-0.1049,-0.1085,-0.1108,-0.1134,-0.1176,-0.1198,-0.1211,-0.1253,-0.1281,-0.1331,-0.1353,-0.1399,-0.1453,-0.148,-0.1498,-0.1554,-0.154,-0.1571,-0.159,-0.1617,-0.1623,-0.1628,-0.1602,-0.1604,-0.1572,-0.1572,-0.1572,0,-0.1053,-0.1086,-0.112,-0.1145,-0.1168,-0.1206,-0.123,-0.1266,-0.1321,-0.134,-0.1355,-0.1444,-0.1472,-0.1528,-0.1554,-0.1566,-0.1564,-0.156,-0.1623,-0.1628,-0.1633,-0.1605,-0.1607,-0.1574,-0.1574,-0.1574,-0.1574,0,-0.1071,-0.1104,-0.112,-0.1165,-0.1197,-0.1226,-0.1272,-0.1314,-0.1351,-0.1374,-0.1445,-0.1494,-0.154,-0.1566,-0.1579,-0.1636,-0.1615,-0.1628,-0.16,-0.1643,-0.161,-0.1612,-0.1577,-0.1577,-0.1576,-0.1576,0,0,-0.1058,-0.112,-0.1127,-0.1146,-0.1209,-0.1232,-0.129,-0.1338,-0.1369,-0.1432,-0.1473,-0.155,-0.1573,-0.1596,-0.1631,-0.1661,-0.1692,-0.1665,-0.1665,-0.1628,-0.1718,-0.1607,-0.1597,-0.1724,-0.1725,-0.1726,-0.1672,0,-0.1061,-0.1098,-0.1139,-0.1181,-0.1199,-0.1257,-0.1305,-0.1354,-0.1401,-0.1453,-0.1508,-0.1563,-0.1586,-0.1623,-0.1659,-0.1693,-0.1703,-0.1703,-0.169,-0.1689,-0.1578,-0.1599,-0.173,-0.1673,-0.1674,-0.1674,-0.1674,0,-0.1057,-0.1083,-0.1117,-0.1179,-0.1196,-0.1235,-0.1307,-0.1356,-0.1429,-0.147,-0.1529,-0.1567,-0.1632,-0.165,-0.1704,-0.1707,-0.1712,-0.1726,-0.1725,-0.1609,-0.1582,-0.1629,-0.1677,-0.1677,-0.1677,-0.1677,-0.1677,0,-0.1007,-0.1068,-0.1091,-0.1111,-0.1189,-0.1227,-0.128,-0.1354,-0.1389,-0.1481,-0.1509,-0.1586,-0.163,-0.167,-0.17,-0.171,-0.174,-0.1749,-0.164,-0.163,-0.173,-0.1725,-0.1772,-0.1772,-0.1772,-0.1772,-0.1772,0,-0.0981,-0.1003,-0.1071,-0.1085,-0.1122,-0.1195,-0.1247,-0.1314,-0.1393,-0.1425,-0.1513,-0.155,-0.1645,-0.1671,-0.1695,-0.1661,-0.1729,-0.1632,-0.1616,-0.1743,-0.174,-0.1729,-0.1725,-0.177,-0.177,-0.1771,-0.1771,0,-0.092,-0.0965,-0.0994,-0.1073,-0.1098,-0.1126,-0.122,-0.1248,-0.1343,-0.1392,-0.1422,-0.1518,-0.1556,-0.1608,-0.1661,-0.1628,-0.1626,-0.1595,-0.1692,-0.1684,-0.149,-0.1489,-0.1449,-0.1445,-0.1441,-0.1438,-0.1436,0,-0.0886,-0.0892,-0.0967,-0.0978,-0.1018,-0.1071,-0.1102,-0.121,-0.124,-0.136,-0.1368,-0.1434,-0.1488,-0.1458,-0.1533,-0.1529,-0.153,-0.1495,-0.1522,-0.1472,-0.1461,-0.1466,-0.1469,-0.143,-0.1429,-0.1428,-0.1427,0,-0.0817,-0.0854,-0.0885,-0.0903,-0.0933,-0.0967,-0.1029,-0.1046,-0.1166,-0.1242,-0.129,-0.1319,-0.1348,-0.139,-0.139,-0.14,-0.1506,-0.1457,-0.1465,-0.149,-0.1449,-0.1442,-0.145,-0.1415,-0.1416,-0.1418,-0.1418,0,-0.077,-0.0769,-0.0806,-0.0817,-0.0843,-0.086,-0.0918,-0.0964,-0.1012,-0.1153,-0.1161,-0.1254,-0.1336,-0.132,-0.133,-0.1319,-0.1307,-0.1275,-0.1292,-0.1306,-0.1289,-0.1217,-0.1089,0,0,0,0,0,-0.0712,-0.0703,-0.0709,-0.0726,-0.0751,-0.0775,-0.0853,-0.0918,-0.1028,-0.1027,-0.1099,-0.113,-0.1159,-0.1205,-0.1164,-0.1252,-0.1302,-0.1197,-0.1272,-0.1346,-0.136,-0.1356,0,0,0,0,0,0,-0.0668,-0.068,-0.0679,-0.0636,-0.0636,-0.0663,-0.0722,-0.0813,-0.083,-0.0947,-0.0971,-0.1044,-0.1086,-0.1159,-0.1134,-0.1144,-0.1165,-0.1247,-0.1244,-0.1338,-0.1351,-0.1362,-0.1363,0,0,0,0,0]},{"header":{"parameterUnit":"m.s-1","parameterCategory":2,"la1":30.2991,"la2":30.254,"lo1":-89.0895,"lo2":-89.0444,"dy":0.0017,"dx":0.0017,"nx":28,"ny":28,"refTime":"2025-07-17T21:00:00:Z","depth":"4","parameterNumber":3,"parameterNumberName":"V-component_of_CURRENTS"},"data":[0,0,0,0,0,0,0,0,0,0,0,0,0,0,0,0,0,0,0,0,0,0,0,0,0,0,0,0,0,0,0,0,0,0,0,0,0,0,0,0,0,0,0,0,0,0,0,0,0,0,0,0,0,0,0,0,0,0,-0.0233,-0.0232,0,-0.0203,-0.0203,-0.0202,-0.0183,-0.0183,-0.0183,-0.0183,-0.012,-0.0119,-0.0117,0,0,0,0,0,0,0,0,0,0,0,0,0,-0.0284,-0.0283,-0.0233,-0.0232,-0.0232,-0.0203,-0.0203,-0.0202,-0.0183,-0.0183,-0.0183,-0.0183,-0.0121,-0.0119,-0.0117,0,0,0,0,0,0,0,0,0,0,0,0,0,-0.0259,-0.0283,-0.0233,-0.0218,-0.0217,-0.0203,-0.0203,-0.0202,-0.0183,-0.0183,-0.0183,-0.0183,-0.0121,-0.0119,-0.0117,-0.0108,0,0,-0.011,-0.0109,0,0,0,0,0,0,0,0,-0.0261,-0.0257,-0.0221,-0.0219,-0.0217,-0.0196,-0.0198,-0.0169,-0.0183,-0.0197,-0.0183,-0.0182,-0.0142,-0.0138,-0.0135,-0.0105,-0.0102,-0.011,-0.0108,-0.0107,-0.0107,0,0,0,0,0,0,0,-0.0262,-0.0259,-0.0222,-0.022,-0.0218,-0.0217,-0.0213,-0.0192,-0.0171,-0.0196,-0.0194,-0.019,-0.0141,-0.0137,-0.0133,-0.0102,-0.011,-0.0108,-0.0106,-0.0105,-0.0065,-0.0065,0,0,0,0,0,0,-0.0264,-0.026,-0.0223,-0.0221,-0.0238,-0.0216,-0.0212,-0.0204,-0.0172,-0.0167,-0.019,-0.0189,-0.0141,-0.0136,-0.013,-0.013,-0.0107,-0.0105,-0.0104,-0.0065,-0.0065,-0.0065,0,0,0,0,0,0,-0.0265,-0.0261,-0.0224,-0.024,-0.0235,-0.0216,-0.0206,-0.0203,-0.0199,-0.0168,-0.0163,-0.0189,-0.014,-0.0134,-0.0118,-0.0127,-0.0104,-0.0102,-0.0064,-0.0065,-0.0065,-0.0122,0,0,0,0,0,0,-0.0267,-0.0261,-0.026,-0.0239,-0.0234,-0.0221,-0.0207,-0.0203,-0.0197,-0.0195,-0.0165,-0.0159,-0.014,-0.0122,-0.0116,-0.0124,-0.01,-0.0064,-0.0065,-0.0065,-0.012,-0.0124,-0.0128,0,0,0,0,0,-0.0269,-0.0264,-0.026,-0.0255,-0.023,-0.0222,-0.0219,-0.0205,-0.0197,-0.02,-0.018,-0.016,-0.0121,-0.012,-0.0113,-0.0121,-0.0064,-0.0064,-0.0065,-0.0118,-0.0123,-0.0128,0,0,0,0,0,0,-0.0278,-0.0261,-0.0256,-0.0244,-0.0238,-0.0218,-0.0217,-0.0208,-0.0195,-0.0192,-0.0164,-0.0157,-0.0148,-0.0124,-0.0125,-0.011,-0.0089,-0.0088,-0.0131,-0.0136,-0.014,-0.0148,-0.0098,0,0,0,0,0,-0.0281,-0.0278,-0.0262,-0.0254,-0.0251,-0.0236,-0.0231,-0.0223,-0.0207,-0.0202,-0.0183,-0.0161,-0.0145,-0.0133,-0.0117,-0.0106,-0.0069,-0.0105,-0.0109,-0.0113,-0.0114,-0.0061,-0.006,-0.0067,-0.0067,-0.0067,0,0,-0.0283,-0.0273,-0.0271,-0.0257,-0.025,-0.0258,-0.0233,-0.0228,-0.0237,-0.0196,-0.02,-0.0177,-0.0147,-0.0141,-0.0134,-0.0121,-0.0094,-0.0114,-0.0118,-0.0116,-0.0062,-0.0061,-0.006,-0.0068,-0.0068,-0.0068,0,0,-0.0295,-0.0277,-0.0286,-0.0285,-0.0278,-0.027,-0.0271,-0.0258,-0.0253,-0.0253,-0.0228,-0.0208,-0.0187,-0.0166,-0.0153,-0.0167,-0.0121,-0.0162,-0.0185,-0.0134,-0.0133,-0.0132,-0.0093,-0.0087,-0.016,-0.0161,-0.0161,0,-0.0299,-0.0306,-0.0287,-0.03,-0.0307,-0.028,-0.0299,-0.0291,-0.0276,-0.0275,-0.0263,-0.0225,-0.0201,-0.0184,-0.0192,-0.0177,-0.0142,-0.0171,-0.014,-0.0137,-0.0135,-0.0095,-0.0088,-0.0163,-0.0163,-0.0163,-0.0162,0,-0.0325,-0.0334,-0.0338,-0.035,-0.0354,-0.0361,-0.0353,-0.0349,-0.0339,-0.0333,-0.0317,-0.0277,-0.0254,-0.0242,-0.0223,-0.0197,-0.0176,-0.0155,-0.0128,-0.0138,-0.0095,-0.0087,-0.0167,-0.0166,-0.0166,-0.0165,0,0,-0.0326,-0.0353,-0.0356,-0.0377,-0.0382,-0.0387,-0.0397,-0.0401,-0.0403,-0.0383,-0.0383,-0.035,-0.0322,-0.0304,-0.0266,-0.0218,-0.0176,-0.0183,-0.0179,-0.0147,-0.0066,-0.005,-0.0039,-0.0144,-0.0143,-0.0142,-0.0047,0,-0.0355,-0.0398,-0.0402,-0.0443,-0.0464,-0.0452,-0.0467,-0.0465,-0.0449,-0.0441,-0.0394,-0.0381,-0.0348,-0.0329,-0.0281,-0.0196,-0.0155,-0.0204,-0.0059,-0.0055,-0.0041,-0.0029,-0.0138,-0.0041,-0.0039,-0.0037,-0.0036,0,-0.0383,-0.0409,-0.046,-0.0495,-0.0503,-0.0524,-0.0532,-0.054,-0.0519,-0.0506,-0.0475,-0.0439,-0.0379,-0.0345,-0.021,-0.024,-0.0167,-0.0097,-0.0092,-0.0049,-0.0023,-0.0025,-0.0021,-0.0022,-0.0023,-0.0024,-0.0025,0,-0.0401,-0.0447,-0.0492,-0.0506,-0.0541,-0.0557,-0.057,-0.0563,-0.0567,-0.054,-0.0526,-0.0462,-0.0408,-0.0312,-0.018,-0.0192,-0.0017,-0.0017,0.0065,0.0066,0.0047,0.0045,0.0072,0.0072,0.0072,0.0071,0.0071,0,-0.0427,-0.0463,-0.0506,-0.0531,-0.0579,-0.059,-0.0622,-0.0617,-0.0607,-0.0598,-0.056,-0.0507,-0.0391,-0.0281,-0.0182,-0.0024,-0.0018,0.0065,0.0097,0.0019,0.0013,0.0053,0.0049,0.0075,0.0074,0.0074,0.0073,0,-0.0442,-0.0472,-0.0524,-0.0573,-0.0592,-0.0624,-0.066,-0.067,-0.0654,-0.063,-0.0621,-0.0526,-0.0374,-0.0255,-0.0074,-0.0012,0.0125,0.0175,0.0083,0.0107,0.0167,0.0159,0.0259,0.0261,0.0262,0.0263,0.0264,0,-0.0456,-0.0485,-0.0554,-0.0586,-0.0613,-0.0659,-0.0686,-0.0695,-0.069,-0.0619,-0.0594,-0.0464,-0.0384,-0.0111,-0.0001,0.0175,0.0197,0.0244,0.0196,0.0167,0.0188,0.0179,0.017,0.0266,0.0266,0.0267,0.0267,0,-0.0477,-0.0503,-0.0543,-0.0606,-0.0649,-0.0694,-0.0721,-0.0716,-0.0694,-0.0682,-0.0533,-0.0411,-0.0239,-0.0072,0.0066,0.0189,0.0197,0.0257,0.0254,0.021,0.0177,0.0194,0.0184,0.0271,0.0271,0.027,0.027,0,-0.0486,-0.0515,-0.0564,-0.0613,-0.0672,-0.0699,-0.0718,-0.0681,-0.0668,-0.0579,-0.0516,-0.0346,-0.0247,-0.0061,0.0073,0.0188,0.0199,0.021,0.021,0.0206,0.0153,0.0101,0.0207,0,0,0,0,0,-0.0488,-0.0515,-0.0565,-0.0619,-0.0675,-0.0705,-0.0725,-0.0728,-0.0695,-0.0583,-0.0547,-0.0379,-0.0161,-0.0065,0.0057,0.006,0.0187,0.02,0.0192,0.0296,0.0291,0.0238,0,0,0,0,0,0,-0.0491,-0.0537,-0.0557,-0.0608,-0.0645,-0.07,-0.0711,-0.0693,-0.0619,-0.0562,-0.0432,-0.0368,-0.0152,-0.022,0.0058,0.009,0.0095,0.0301,0.0302,0.0299,0.0294,0.029,0.0235,0,0,0,0,0]}]]